TIANLIAN 1-04

Last updated on Mon Jun 22 2026 00:03:06 GMT+0000 (Coordinated Universal Time)

1 41869U 16072A 26172.49975329 .00000029 00000+0 00000+0 0 9999 2 41869 0.8790 82.8945 0042607 90.1587 93.3187 1.00272046 35347
UTC large
Height (km)
Speed (km/s)
/
Latitude / Longitude
Inclination (degrees)
Orbital Period (minutes)
Azimuth
Elevation
Range (km)
Doppler Factor

Next 0 passes for location: London (51.5072 / 0.1276)

No passes found over London.
TIANLIAN 1-04